Weather in Shchorsy

Belarus     53°38′03″N   26°11′02″E
temp.,
°C
wind,
m/s
gust,
m/s
humid.,
%
clouds,
%
prec.,
mm/h
press.,
hPa
HPBL,
m
8 march, mon
mon800:00−3wnw5128476 0.1 1007624
03:00−5wnw4128342 0.1 1008630
06:00−4wnw6128533 0.0 1008880
09:00−4nw598464 0.3 1009908
12:00−2nnw6867100 0.6 10111369
15:00−2nw696496 0.8 10131474
18:00−3nw4881100 0.2 1014931
21:00−5nnw3887100 0.3 1017413
9 march, tue
tue900:00−6nw248997 0.0 1018102
03:00−7nw239185 0.0 101982
06:00−8nw229447 0.0 102040
09:00−7nw239048 0.0 1022153
12:00−3nnw226239 0.0 1022843
15:00−2w225759 0.0 10221110
18:00−3w237288 0.0 1022333
21:00−6wsw228789 0.0 102333
10 march, wed
wed1000:00−6sw238594 0.0 102483
03:00−7ssw228687 0.0 102355
06:00−8s23877 0.0 102381
09:00−7s24824 0.0 1023134
12:00−2sw23661 0.0 1023517
15:00−1sw33612 0.0 1022978
18:00−2ssw23720 0.0 1021254
21:00−5s23820 0.0 102247
11 march, thu
thu1100:00−6s23840 0.0 102385
03:00−7sse23820 0.0 102369
06:00−7sse23810 0.0 102282
09:00−6sse35770 0.0 1022182
12:00−1sse58670 0.0 1020741
15:00+1sse696334 0.0 10171182
18:000sse61267100 0.0 10141042
21:000sse81574100 0.0 10111008
12 march, fri
fri1200:00−1sse91793100 0.6 1006974
03:000sse101894100 3.6 1001867
06:00+2ssw61298100 3.6 998448
09:00+3wsw51397100 4.4 998570
12:00+3sw51196100 0.0 998727
15:00+2wsw61496100 1.6 999964
18:00+3wsw61393100 0.1 1001748
21:00+2sw41391100 0.5 1003544